FW8563 Weather Reports


time (UTC)temp
F
wind
direction
speed
knots
gust
knots
rain 1hr
in
rain 24hr
in
rain mn
in
humidity
%
barometer
mb
20260507064134 54 131 0.9 1.7 0.00 0.17 0.14 99 1016.1
20260507063633 54 209 0.0 1.7 0.00 0.17 0.14 99 1016.2
20260507063133 54 165 0.0 1.7 0.00 0.17 0.14 99 1016.1
20260507062631 54 140 0.9 4.3 0.00 0.17 0.14 99 1016.1
20260507062133 54 219 0.9 4.3 0.00 0.17 0.14 99 1016.1
20260507061630 54 226 0.0 3.5 0.00 0.17 0.14 99 1016.0
20260507061130 54 151 0.0 1.7 0.00 0.17 0.14 99 1015.9
20260507060631 54 220 0.0 1.7 0.00 0.17 0.14 99 1015.9
20260507060130 54 150 0.0 0.9 0.00 0.17 0.14 99 1016.0
20260507055631 54 114 0.0 1.7 0.00 0.17 0.14 99 1015.9
20260507055130 54 148 0.0 1.7 0.00 0.17 0.14 99 1015.9
20260507054130 53 212 0.0 1.7 0.00 0.17 0.14 99 1016.0
20260507053629 53 217 0.0 1.7 0.00 0.17 0.14 99 1016.0
20260507053130 53 200 0.0 1.7 0.00 0.18 0.14 99 1015.9
20260507052629 53 208 0.0 1.7 0.00 0.18 0.14 99 1015.9
20260507052126 53 198 0.0 0.9 0.00 0.18 0.14 99 1015.8
20260507051625 53 214 0.0 0.9 0.00 0.19 0.14 99 1015.8
20260507050622 53 134 0.0 1.7 0.00 0.20 0.14 99 1015.8
20260507050122 53 200 0.0 3.5 0.00 0.20 0.14 99 1015.7
20260507045623 53 227 0.9 3.5 0.00 0.20 0.14 99 1015.8
20260507045119 53 203 0.0 2.6 0.00 0.20 0.14 99 1015.8
20260507044620 53 218 0.0 2.6 0.00 0.20 0.14 99 1015.6
20260507044119 53 233 0.9 2.6 0.00 0.20 0.14 99 1015.5
20260507043619 53 212 0.9 3.5 0.00 0.20 0.14 99 1015.5
20260507043121 53 226 0.9 3.5 0.00 0.20 0.14 99 1015.4
20260507042617 53 226 0.9 3.5 0.00 0.20 0.14 99 1015.4
20260507042114 53 223 0.0 3.5 0.00 0.20 0.14 99 1015.4
20260507041617 53 226 0.0 2.6 0.00 0.20 0.14 99 1015.4
20260507041117 53 174 0.9 3.5 0.00 0.20 0.14 99 1015.4
20260507040616 53 212 0.9 3.5 0.00 0.20 0.14 99 1015.3
20260507040118 53 223 0.9 2.6 0.00 0.20 0.14 99 1015.4
20260507035617 53 207 0.9 4.3 0.00 0.20 0.14 99 1015.3
20260507035116 53 199 0.9 4.3 0.00 0.21 0.14 99 1015.3
20260507034615 53 181 0.9 4.3 0.00 0.21 0.14 98 1015.2
20260507034114 53 148 0.9 5.2 0.00 0.21 0.14 99 1015.3
20260507033113 53 149 0.9 5.2 0.00 0.21 0.14 99 1015.2
20260507032614 53 231 1.7 4.3 0.00 0.21 0.14 99 1015.2
20260507032112 53 131 0.9 3.5 0.00 0.21 0.14 99 1015.3
20260507031614 53 127 0.9 6.1 0.00 0.21 0.14 99 1015.2
20260507025110 53 150 1.7 5.2 0.00 0.21 0.14 98 1015.3
20260507024610 54 165 1.7 7.8 0.00 0.21 0.14 98 1015.3
20260507024112 54 184 1.7 7.8 0.00 0.21 0.14 99 1015.3
20260507023612 54 179 1.7 7.8 0.00 0.21 0.14 99 1015.2
20260507022610 54 133 2.6 8.7 0.00 0.21 0.14 99 1015.2
20260507022107 54 201 1.7 7.0 0.00 0.21 0.14 99 1015.1
20260507021602 54 140 1.7 6.1 0.00 0.21 0.14 99 1015.2
20260507021102 54 143 2.6 7.8 0.00 0.21 0.14 98 1015.2
20260507020600 54 172 1.7 7.8 0.00 0.21 0.14 98 1015.2
20260507015602 54 99 1.7 6.1 0.00 0.21 0.14 98 1015.2
20260507015100 54 139 1.7 7.0 0.00 0.21 0.14 98 1015.2
20260507014613 54 151 2.6 7.0 0.00 0.21 0.14 99 1015.2
20260507014100 55 162 0.9 6.1 0.00 0.21 0.14 99 1015.3
20260507013602 55 224 0.9 3.5 0.00 0.21 0.14 99 1015.3
20260507013104 55 184 0.9 4.3 0.00 0.21 0.14 99 1015.3
20260507012602 55 210 1.7 6.1 0.00 0.21 0.14 98 1015.2
20260507012101 55 213 2.6 7.0 0.01 0.22 0.14 99 1015.2
20260507011100 55 193 0.9 4.3 0.03 0.23 0.14 98 1015.2
20260507010559 55 198 0.9 3.5 0.04 0.23 0.14 98 1015.3
20260507005600 55 191 0.9 3.5 0.06 0.23 0.14 98 1015.2
20260507005057 55 161 0.9 3.5 0.07 0.23 0.14 98 1015.3
20260507004056 55 217 2.6 6.1 0.09 0.23 0.14 98 1015.2
20260507003559 55 195 2.6 6.1 0.10 0.23 0.14 98 1015.1
20260507003055 55 223 2.6 7.8 0.11 0.23 0.14 98 1015.0
20260507002552 55 221 2.6 8.7 0.11 0.23 0.14 98 1015.0
20260507002054 55 256 2.6 8.7 0.10 0.22 0.13 98 1014.9
20260507001559 55 165 2.6 7.8 0.09 0.20 0.13 98 1014.9
20260506235547 55 171 1.7 5.2 0.07 0.17 0.08 98 1015.1
20260506235039 55 269 1.7 6.1 0.06 0.15 0.06 98 1015.2
20260506233536 55 136 0.9 4.3 0.03 0.13 0.04 98 1015.2
20260506233035 55 127 2.6 7.0 0.02 0.12 0.03 98 1015.2
20260506231536 55 146 1.7 6.1 0.03 0.12 0.03 98 1015.3
20260506231034 55 141 1.7 7.0 0.02 0.11 0.02 98 1015.2
20260506230533 55 131 2.6 7.0 0.02 0.10 0.02 98 1015.2
20260506230029 55 131 1.7 4.3 0.01 0.09 0.01 98 1015.2
20260506225030 55 146 0.9 5.2 0.01 0.09 0.01 98 1015.3
20260506223529 55 180 2.6 9.6 0.01 0.09 0.01 98 1015.4
20260506222529 55 141 2.6 7.0 0.00 0.09 0.00 98 1015.4
20260506222028 55 158 3.5 11.3 0.00 0.09 0.00 98 1015.5
20260506221528 55 140 4.3 11.3 0.00 0.09 0.00 98 1015.6
20260506221027 55 171 4.3 10.4 0.00 0.09 0.00 98 1015.5
20260506220028 56 183 2.6 10.4 0.00 0.09 0.00 98 1015.4
20260506215530 56 141 3.5 8.7 0.00 0.09 0.09 98 1015.5
20260506215028 56 125 3.5 8.7 0.00 0.09 0.09 98 1015.5
20260506214534 56 224 2.6 7.8 0.00 0.09 0.09 98 1015.6
20260506214029 56 124 3.5 7.8 0.00 0.09 0.09 98 1015.5
20260506213028 56 207 3.5 10.4 0.00 0.09 0.09 98 1015.5
20260506212527 56 211 3.5 8.7 0.00 0.09 0.09 98 1015.5
20260506212029 56 152 4.3 10.4 0.00 0.09 0.09 98 1015.4
20260506211028 56 238 3.5 9.6 0.00 0.09 0.09 98 1015.6
20260506210528 56 213 2.6 8.7 0.00 0.09 0.09 98 1015.6
20260506210028 56 191 3.5 9.6 0.00 0.09 0.09 98 1015.7
20260506205529 56 231 3.5 9.6 0.00 0.09 0.09 98 1015.7
20260506204528 56 184 3.5 10.4 0.00 0.09 0.09 98 1015.7
20260506204028 56 186 2.6 10.4 0.00 0.09 0.09 98 1015.4
20260506203530 56 139 1.7 8.7 0.00 0.09 0.09 98 1015.5
20260506201528 56 160 3.5 12.2 0.00 0.09 0.09 98 1015.4
20260506201025 56 217 2.6 12.2 0.00 0.09 0.09 98 1015.5
20260506200524 56 157 2.6 9.6 0.00 0.09 0.09 98 1015.4
20260506200024 56 110 2.6 9.6 0.02 0.09 0.09 98 1015.3
20260506195524 56 143 2.6 11.3 0.02 0.09 0.09 98 1015.2
20260506195026 56 195 2.6 11.3 0.02 0.09 0.09 98 1015.2
20260506194528 56 174 2.6 7.0 0.02 0.09 0.09 98 1015.2
20260506194024 56 218 2.6 7.8 0.02 0.09 0.09 98 1015.2
20260506193525 56 148 2.6 7.8 0.02 0.09 0.09 98 1015.1
20260506193025 56 217 2.6 8.7 0.02 0.09 0.09 98 1015.1
20260506192023 56 143 2.6 9.6 0.02 0.09 0.09 98 1015.0
20260506191522 56 176 2.6 9.6 0.02 0.09 0.09 98 1014.9
20260506191027 56 213 2.6 8.7 0.02 0.09 0.09 97 1014.8
20260506190525 56 199 2.6 9.6 0.02 0.09 0.09 97 1014.8
20260506190022 56 217 2.6 12.2 0.00 0.07 0.07 97 1014.7
20260506185522 56 218 2.6 12.2 0.00 0.07 0.07 97 1014.7
20260506185020 56 187 1.7 7.0 0.00 0.07 0.07 97 1014.6
20260506184016 56 192 1.7 6.1 0.00 0.07 0.07 97 1014.6
20260506183515 57 233 1.7 6.1 0.00 0.07 0.07 96 1014.6
20260506183015 57 211 1.7 7.8 0.00 0.07 0.07 96 1014.6
20260506182514 57 223 2.6 7.8 0.00 0.07 0.07 96 1014.6
20260506182013 57 214 2.6 8.7 0.00 0.07 0.07 96 1014.5
20260506181012 57 273 2.6 8.7 0.00 0.07 0.07 96 1014.6
20260506180515 57 225 1.7 6.1 0.00 0.07 0.07 95 1014.5
20260506180012 57 195 1.7 6.1 0.00 0.07 0.07 95 1014.5
20260506175008 57 157 1.7 7.0 0.00 0.07 0.07 95 1014.6
20260506174507 57 139 1.7 6.1 0.00 0.07 0.07 95 1014.5
20260506173503 57 115 2.6 11.3 0.00 0.07 0.07 94 1014.6
20260506172504 57 159 2.6 7.0 0.00 0.07 0.07 94 1014.5
20260506172005 57 142 2.6 8.7 0.00 0.07 0.07 94 1014.5
20260506171501 57 236 2.6 9.6 0.00 0.07 0.07 94 1014.4
20260506171004 57 146 3.5 9.6 0.00 0.07 0.07 95 1014.4
20260506170505 57 212 4.3 11.3 0.00 0.07 0.07 95 1014.4
20260506170000 57 92 3.5 14.8 0.00 0.07 0.07 95 1014.5
20260506165503 57 250 3.5 14.8 0.00 0.07 0.07 94 1014.5
20260506165001 57 193 3.5 9.6 0.00 0.07 0.07 94 1014.5
20260506164503 57 79 3.5 12.2 0.00 0.07 0.07 94 1014.5
20260506163501 57 152 2.6 11.3 0.00 0.07 0.07 94 1014.5
20260506161951 57 180 3.5 10.4 0.00 0.07 0.07 95 1014.5
20260506160950 57 223 4.3 10.4 0.00 0.07 0.07 95 1014.5
20260506160449 57 110 4.3 12.2 0.00 0.07 0.07 95 1014.4
20260506155949 57 106 4.3 12.2 0.00 0.07 0.07 95 1014.5
20260506154952 58 193 4.3 12.2 0.00 0.07 0.07 95 1014.6
20260506154452 58 230 5.2 12.2 0.01 0.07 0.07 94 1014.5
20260506153949 58 208 4.3 10.4 0.01 0.07 0.07 94 1014.6
20260506153451 58 225 4.3 10.4 0.01 0.07 0.07 94 1014.6
20260506152449 58 162 4.3 10.4 0.01 0.07 0.07 94 1014.5
20260506151948 58 147 3.5 10.4 0.01 0.07 0.07 94 1014.6
20260506151443 58 193 3.5 9.6 0.01 0.07 0.07 94 1014.5
20260506150943 58 202 3.5 10.4 0.01 0.07 0.07 95 1014.5
20260506150441 58 210 3.5 10.4 0.01 0.08 0.07 95 1014.5
20260506145942 58 240 3.5 9.6 0.01 0.08 0.07 95 1014.6
20260506145441 58 184 3.5 11.3 0.01 0.08 0.07 95 1014.4
20260506144943 58 231 3.5 11.3 0.01 0.08 0.07 95 1014.2
20260506144441 58 210 2.6 7.0 0.00 0.07 0.06 96 1014.2
20260506143942 58 196 3.5 10.4 0.00 0.07 0.06 96 1014.4
20260506143442 58 198 3.5 10.4 0.00 0.07 0.06 96 1014.4
20260506142941 57 181 3.5 9.6 0.00 0.07 0.06 96 1014.5
20260506142441 57 229 3.5 7.8 0.00 0.07 0.06 96 1014.6
20260506141941 57 282 3.5 10.4 0.01 0.07 0.06 96 1014.6
20260506141441 57 136 2.6 10.4 0.01 0.07 0.06 96 1014.7
20260506140943 57 212 2.6 10.4 0.01 0.07 0.06 96 1014.6
20260506140440 57 134 2.6 10.4 0.01 0.07 0.06 96 1014.6
20260506135934 57 192 2.6 8.7 0.01 0.07 0.06 96 1014.6
20260506134431 57 237 3.5 11.3 0.01 0.07 0.06 96 1014.6
20260506133931 57 139 4.3 11.3 0.01 0.07 0.06 95 1014.5
20260506132933 57 136 4.3 14.8 0.01 0.07 0.06 95 1014.5
20260506132431 57 160 3.5 14.8 0.01 0.07 0.06 95 1014.6
20260506131935 57 124 2.6 7.0 0.00 0.06 0.06 95 1014.5
20260506131433 57 140 2.6 7.0 0.00 0.06 0.06 95 1014.6
20260506130932 57 242 2.6 7.8 0.00 0.06 0.06 95 1014.7
20260506124931 57 186 5.2 13.0 0.00 0.06 0.06 93 1014.9
20260506124433 57 210 5.2 13.0 0.00 0.06 0.06 92 1015.0
20260506123932 58 205 4.3 10.4 0.00 0.07 0.06 90 1014.9
20260506123431 58 221 4.3 10.4 0.00 0.08 0.06 88 1015.0
20260506121931 59 196 5.2 11.3 0.00 0.11 0.06 86 1015.0
20260506121433 59 173 5.2 11.3 0.00 0.12 0.06 85 1015.1
20260506120931 59 206 5.2 11.3 0.00 0.13 0.06 83 1015.1
20260506120429 60 212 6.1 13.9 0.00 0.13 0.06 81 1015.2
20260506115931 60 204 6.1 13.9 0.00 0.13 0.06 79 1015.1
20260506115429 60 224 6.1 15.6 0.00 0.13 0.06 79 1014.9
20260506113925 61 226 7.0 13.9 0.00 0.14 0.06 78 1014.9
20260506113423 61 224 7.0 17.4 0.00 0.14 0.06 79 1014.8
20260506112923 60 166 7.8 17.4 0.00 0.15 0.06 81 1014.7
20260506112423 60 196 7.0 15.6 0.00 0.15 0.06 81 1014.8
20260506111923 60 127 7.0 15.6 0.00 0.15 0.06 82 1014.7
20260506111425 60 214 7.0 15.6 0.00 0.15 0.06 83 1014.8
20260506110422 60 186 6.1 15.6 0.00 0.16 0.06 81 1014.9
20260506104923 60 222 6.1 13.0 0.00 0.16 0.06 80 1015.1
20260506103923 59 200 6.1 13.9 0.00 0.17 0.06 82 1014.9
20260506103422 59 187 5.2 10.4 0.00 0.17 0.06 83 1015.0
20260506102922 59 200 5.2 10.4 0.00 0.17 0.06 83 1015.0
20260506102423 59 210 5.2 13.0 0.00 0.17 0.06 83 1015.2
20260506101918 59 164 5.2 13.9 0.00 0.18 0.06 82 1015.0
20260506100919 59 212 5.2 15.6 0.00 0.18 0.06 81 1015.2
20260506100419 59 233 6.1 15.6 0.00 0.18 0.06 80 1015.1
20260506095919 60 134 6.1 13.9 0.00 0.18 0.06 81 1015.2
20260506095418 59 216 7.0 14.8 0.00 0.18 0.06 81 1015.3
20260506094918 59 136 7.0 14.8 0.00 0.18 0.06 81 1015.2
20260506094419 59 202 7.0 13.0 0.00 0.18 0.06 81 1015.2
20260506093421 58 221 7.0 13.0 0.00 0.18 0.06 83 1015.1
20260506092920 58 209 7.0 13.0 0.00 0.19 0.06 85 1015.2
20260506092418 57 209 7.0 13.9 0.00 0.19 0.06 87 1015.0
20260506091921 57 207 5.2 13.9 0.00 0.19 0.06 93 1014.9
20260506091419 57 222 4.3 9.6 0.00 0.19 0.06 98 1015.1
20260506090418 56 194 4.3 12.2 0.00 0.20 0.06 99 1015.1
20260506085917 55 196 3.5 12.2 0.00 0.20 0.06 99 1015.1
20260506085415 55 173 3.5 9.6 0.00 0.20 0.06 99 1015.2
20260506084917 54 201 3.5 8.7 0.00 0.20 0.06 99 1015.2
20260506084414 54 202 2.6 7.0 0.00 0.20 0.06 99 1015.2
20260506083914 54 114 1.7 4.3 0.00 0.20 0.06 99 1015.1
20260506082914 54 223 2.6 8.7 0.00 0.21 0.06 99 1015.0
20260506082414 53 155 2.6 8.7 0.00 0.21 0.06 99 1014.9
20260506081917 53 151 3.5 8.7 0.00 0.21 0.06 99 1014.8
20260506081415 53 129 4.3 11.3 0.00 0.21 0.06 99 1014.7
20260506080424 53 238 3.5 11.3 0.00 0.21 0.06 99 1014.7
20260506073408 53 155 3.5 8.7 0.00 0.21 0.06 99 1014.6
20260506072910 53 162 3.5 8.7 0.00 0.21 0.06 99 1014.5
20260506072410 53 102 2.6 8.7 0.00 0.21 0.06 99 1014.6
20260506071908 52 165 2.6 8.7 0.00 0.21 0.06 99 1014.6
20260506071408 52 152 2.6 9.6 0.00 0.21 0.06 99 1014.6
20260506070909 52 114 3.5 9.6 0.00 0.21 0.06 99 1014.5
20260506070406 52 151 3.5 8.7 0.00 0.21 0.06 99 1014.7